This is the latest recevied weather packets stored in our database for station/object IU1JVO-13. If no packets are shown the sender has not sent any weather packets the latest 1 day(s).
| Time | Temp. | Humidity | Pressure | Rain* | Wind** | Luminosity | Snow |
|---|---|---|---|---|---|---|---|
| 1777975317 | 10° C | 89% | 1015.6 hPa | 0.25 mm | 0.45 m/s, 116° | - | - |
| 1777974718 | 10° C | 88% | 1015.6 hPa | 0.25 mm | 0.45 m/s, 139° | - | - |
| 1777974116 | 10° C | 88% | 1015.3 hPa | 0.25 mm | 0.45 m/s, 129° | - | - |
| 1777973516 | 10° C | 87% | 1015.3 hPa | 0 mm | 0.45 m/s, 37° | - | - |
| 1777972917 | 10° C | 85% | 1015.3 hPa | 0 mm | 0.45 m/s, 130° | - | - |
| 1777972317 | 10° C | 85% | 1015.1 hPa | 0 mm | 0 m/s | - | - |
| 1777971718 | 10° C | 85% | 1015.2 hPa | 0 mm | 0.45 m/s, 250° | - | - |
| 1777971117 | 10° C | 84% | 1015.1 hPa | 0 mm | 0.45 m/s, 254° | - | - |
| 1777970517 | 9.44° C | 85% | 1014.9 hPa | 0 mm | 0.45 m/s, 263° | - | - |
| 1777969916 | 9.44° C | 85% | 1014.8 hPa | 0 mm | 0.89 m/s, 262° | - | - |
| 1777969318 | 9.44° C | 86% | 1014.8 hPa | 0 mm | 0.89 m/s, 256° | - | - |
| 1777968717 | 9.44° C | 86% | 1014.7 hPa | 0 mm | 0.45 m/s, 252° | - | - |
| 1777968117 | 9.44° C | 87% | 1014.9 hPa | 0 mm | 0.89 m/s, 257° | - | - |
| 1777967517 | 9.44° C | 87% | 1014.7 hPa | 0 mm | 0.89 m/s, 258° | - | - |
| 1777966917 | 9.44° C | 86% | 1014.8 hPa | 0 mm | 0.89 m/s, 259° | - | - |
| 1777966316 | 8.89° C | 84% | 1014.7 hPa | 0 mm | 0.89 m/s, 267° | - | - |
| 1777965717 | 8.89° C | 85% | 1014.7 hPa | 0.25 mm | 0.89 m/s, 274° | - | - |
| 1777965118 | 8.89° C | 85% | 1014.6 hPa | 0.25 mm | 0.45 m/s, 274° | - | - |
| 1777964517 | 8.89° C | 83% | 1014.7 hPa | 0.25 mm | 0.89 m/s, 279° | - | - |
| 1777963916 | 8.89° C | 84% | 1014.8 hPa | 0.25 mm | 0.45 m/s, 287° | - | - |
| 1777963317 | 8.89° C | 83% | 1014.7 hPa | 0.25 mm | 1.79 m/s, 274° | - | - |
| 1777962717 | 8.89° C | 87% | 1014.8 hPa | 0.25 mm | 0.89 m/s, 258° | - | - |
| 1777962119 | 8.33° C | 88% | 1014.8 hPa | 0 mm | 0 m/s | - | - |
| 1777961517 | 8.33° C | 86% | 1014.6 hPa | 0 mm | 0.45 m/s, 285° | - | - |
| 1777960917 | 8.33° C | 84% | 1014.6 hPa | 0 mm | 1.34 m/s, 285° | - | - |
* Rain latest hour (hover to see other rain measurements)
** Current wind speed in m/s (hover to see current wind gust speed)